{"data":{"norad_id":52341,"intl_designator":"2022-045L","name":"STARLINK-3843","alt_names":[],"object_type":"PAYLOAD","status":"ACTIVE","operator":null,"country":"US","launch_date":"2022-04-29","launch_site_code":"AFETR","launch_vehicle":null,"mission":null,"orbit_class":"UNKNOWN","rcs_meters":null,"size_class":null,"mass_kg":null,"dimensions":null,"purposes":["comms"],"wikipedia_slug":null,"has_3d_model":false,"image_url":null,"decayed_at":null,"tle_current":{"epoch":"2026-05-25T04:46:31.097856Z","epoch_age_seconds":53881,"freshness":"FRESH","line1":"1 52341U 22045L   26145.19897104  .00001762  00000+0  12876-3 0  9997","line2":"2 52341  53.2138 225.6086 0001099  81.1278 278.9838 15.08842084227190","mean_motion":15.08842084,"eccentricity":0.0001099,"inclination_deg":53.2138,"raan_deg":225.6086,"arg_perigee_deg":81.1278,"mean_anomaly_deg":278.9838,"bstar":0.00012876,"rev_number":22719,"period_min":95.437422860218,"perigee_km":538.97674466246,"apogee_km":540.49729337184,"semimajor_km":6917.8740190172,"source":"CELESTRAK","updated_at":"2026-05-25T13:38:17.114328Z"}}}